Tracking 27124 objects as of 31-Mar-2023
HD Live streaming from Space Station
objects crossing your sky now

COSMOS 249 DEB

Track COSMOS 249 DEB now!
10-day predictions


NORAD ID: 3509
Int'l Code: 1968-091F
Perigee: 464.1 km
Apogee: 844.5 km
Inclination: 62.4 °
Period: 97.7 minutes
Semi major axis: 7025 km
RCS: 0.036 m2 (small)
Launch date: October 20, 1968
Source: Commonwealth of Independent States (former USSR) (CIS)
Launch site: TYURATAM MISSILE AND SPACE COMPLEX (TTMTR)

Note: This is SATELLITE DEBRIS
Your satellite tracking list
Your tracking list is empty




NASA's NSSDC Master Catalog

Two Line Element Set (TLE):
1 03509U 68091F   23089.50016800  .00017137  00000-0  14303-2 0  9995
2 03509  62.3601  77.3972 0270719 223.7701 134.1638 14.74369395731480
Source of the keplerian elements: AFSPC